Princeton, MN

9:20 PM CST on November 11, 2019 (GMT -0600)
Princeton Municipal

Weather History for KPNM - June, 2019

Change the Weather History Date:

Wednesday, June 5, 2019

  Actual Average Record
Temperature  
Mean Temperature 68 °F -  
Max Temperature 80 °F 71 °F 87 °F (2006)
Min Temperature 57 °F 48 °F 39 °F (2002)
Cooling Degree Days 4    
Growing Degree Days 18 (Base 50)    
Moisture  
Dew Point 60 °F    
Average Humidity 76    
Maximum Humidity 100    
Minimum Humidity 50    
Precipitation  
Precipitation 0.00 in - - ()
Sea Level Pressure  
Sea Level Pressure 29.80 in    
Wind  
Wind Speed 4 mph (North)    
Max Wind Speed 12 mph    
Max Gust Speed -    
Visibility 9 miles    
Events Fog , Rain    
Averages and records for this station are not official NWS values.
T = Trace of Precipitation, MM = Missing Value Source: NWS Daily Summary

Daily Weather History Graph

Daily Weather History Graph

Search for Another Location

Airport or City:

Astronomy

Jun. 05, 2019 Rise Set
Actual Time 5:27 AM CDT 8:59 PM CDT
Civil Twilight 4:49 AM CDT 9:36 PM CDT
Nautical Twilight 4:00 AM CDT 10:26 PM CDT
Astronomical Twilight 2:55 AM CDT 11:31 PM CDT
Moon 7:33 AM CDT (6/5) 11:25 PM CDT (6/5)
Length of Visible Light 16h 46m
Length of Day
15h 32m
Waxing Crescent, 7% of the Moon is Illuminated
Jun 5
Waxing Crescent
Jun 10
First Quarter
Jun 17
Full
Jun 25
Last Quarter
Jul 2
New

Hourly Weather History & Observations

Time (CDT) Temp. Heat Index Dew Point Humidity Pressure Visibility Wind Dir Wind Speed Gust Speed Precip Events Conditions
12:15 AM 64.4 °F - 62.6 °F 94% 29.74 in 10.0 mi Calm Calm - N/A   Scattered Clouds
12:35 AM 62.6 °F - 60.8 °F 94% 29.74 in 7.0 mi Calm Calm - N/A   Clear
12:36 AM 62.6 °F - 60.8 °F 94% 29.74 in 10.0 mi Calm Calm - N/A   Clear
12:55 AM 62.6 °F - 62.6 °F 100% 29.74 in 10.0 mi NW 9.2 mph - N/A   Clear
12:57 AM 64.4 °F - 62.6 °F 94% 29.74 in 10.0 mi NW 9.2 mph - N/A   Clear
1:15 AM 64.4 °F - 62.6 °F 94% 29.73 in 10.0 mi NW 8.1 mph - N/A   Clear
1:16 AM 64.4 °F - 62.6 °F 94% 29.73 in 10.0 mi NW 6.9 mph - N/A   Clear
1:35 AM 64.4 °F - 60.8 °F 88% 29.73 in 10.0 mi Calm Calm - N/A Rain Light Rain
1:36 AM 64.4 °F - 60.8 °F 88% 29.73 in 10.0 mi Calm Calm - N/A Rain Light Rain
1:56 AM 64.4 °F - 60.8 °F 88% 29.72 in 10.0 mi SW 5.8 mph - N/A Rain Rain
2:15 AM 64.4 °F - 60.8 °F 88% 29.68 in 10.0 mi SSW 5.8 mph - N/A Rain Light Rain
2:16 AM 64.4 °F - 60.8 °F 88% 29.68 in 10.0 mi SSW 6.9 mph - N/A Rain Light Rain
2:37 AM 64.4 °F - 60.8 °F 88% 29.63 in 10.0 mi SSE 5.8 mph - N/A   Scattered Clouds
2:55 AM 62.6 °F - 60.8 °F 94% 29.65 in 10.0 mi Calm Calm - N/A   Clear
2:56 AM 62.6 °F - 60.8 °F 94% 29.65 in 10.0 mi Calm Calm - N/A   Clear
3:16 AM 62.6 °F - 60.8 °F 94% 29.64 in 10.0 mi West 3.5 mph - N/A   Clear
3:35 AM 62.6 °F - 60.8 °F 94% 29.66 in 10.0 mi WNW 3.5 mph - N/A   Clear
3:36 AM 62.6 °F - 60.8 °F 94% 29.66 in 10.0 mi WNW 4.6 mph - N/A   Clear
3:55 AM 62.6 °F - 60.8 °F 94% 29.70 in 10.0 mi NNW 6.9 mph - N/A   Clear
4:15 AM 62.6 °F - 60.8 °F 94% 29.72 in 10.0 mi NE 3.5 mph - N/A   Clear
4:16 AM 62.6 °F - 60.8 °F 94% 29.72 in 10.0 mi Calm Calm - N/A   Clear
4:35 AM 62.6 °F - 59.0 °F 88% 29.74 in 10.0 mi Calm Calm - N/A   Clear
4:36 AM 62.6 °F - 59.0 °F 88% 29.74 in 10.0 mi Calm Calm - N/A   Clear
4:55 AM 60.8 °F - 59.0 °F 94% 29.74 in 4.0 mi Calm Calm - N/A   Clear
4:56 AM 60.8 °F - 59.0 °F 94% 29.74 in 3.0 mi Calm Calm - N/A   Clear
5:15 AM 60.8 °F - 57.2 °F 88% 29.75 in 1.5 mi Calm Calm - N/A   Clear
5:17 AM 60.8 °F - 57.2 °F 88% 29.75 in 1.2 mi Calm Calm - N/A   Clear
5:35 AM 60.8 °F - 57.2 °F 88% 29.76 in 1.0 mi Calm Calm - N/A   Clear
5:55 AM 57.2 °F - 57.2 °F 100% 29.77 in 0.2 mi Calm Calm - N/A Fog Fog
5:56 AM 57.2 °F - 57.2 °F 100% 29.77 in 0.2 mi Calm Calm - N/A Fog Fog
6:16 AM 59.0 °F - 57.2 °F 94% 29.78 in 2.5 mi North 3.5 mph - N/A   Scattered Clouds
6:35 AM 60.8 °F - 59.0 °F 94% 29.78 in 10.0 mi NNE 4.6 mph - N/A   Clear
6:55 AM 60.8 °F - 59.0 °F 94% 29.79 in 7.0 mi NNE 4.6 mph - N/A   Mostly Cloudy
6:56 AM 60.8 °F - 59.0 °F 94% 29.79 in 7.0 mi North 3.5 mph - N/A   Mostly Cloudy
7:16 AM 60.8 °F - 59.0 °F 94% 29.80 in 7.0 mi North 5.8 mph - N/A   Overcast
7:35 AM 60.8 °F - 60.8 °F 100% 29.81 in 10.0 mi North 8.1 mph - N/A   Mostly Cloudy
7:36 AM 60.8 °F - 59.0 °F 94% 29.81 in 10.0 mi North 6.9 mph - N/A   Mostly Cloudy
7:55 AM 60.8 °F - 60.8 °F 100% 29.81 in 10.0 mi NNE 5.8 mph - N/A   Mostly Cloudy
7:57 AM 60.8 °F - 60.8 °F 100% 29.81 in 10.0 mi NNE 4.6 mph - N/A   Mostly Cloudy
8:15 AM 62.6 °F - 60.8 °F 94% 29.81 in 10.0 mi Calm Calm - N/A   Scattered Clouds
8:16 AM 62.6 °F - 60.8 °F 94% 29.81 in 10.0 mi Calm Calm - N/A   Scattered Clouds
8:35 AM 62.6 °F - 60.8 °F 94% 29.81 in 10.0 mi Calm Calm - N/A   Clear
8:56 AM 64.4 °F - 60.8 °F 88% 29.81 in 10.0 mi NNE 6.9 mph - N/A   Clear
9:15 AM 66.2 °F - 60.8 °F 83% 29.81 in 10.0 mi NNE 5.8 mph - N/A   Clear
9:35 AM 64.4 °F - 60.8 °F 88% 29.81 in 10.0 mi North 4.6 mph - N/A   Clear
9:37 AM 64.4 °F - 60.8 °F 88% 29.81 in 10.0 mi NE 6.9 mph - N/A   Clear
9:55 AM 66.2 °F - 60.8 °F 83% 29.81 in 10.0 mi NE 4.6 mph - N/A   Clear
9:56 AM 66.2 °F - 60.8 °F 83% 29.81 in 10.0 mi NE 4.6 mph - N/A   Clear
10:15 AM 66.2 °F - 60.8 °F 83% 29.82 in 10.0 mi North 4.6 mph - N/A   Clear
10:16 AM 66.2 °F - 60.8 °F 83% 29.82 in 10.0 mi North 4.6 mph - N/A   Clear
10:35 AM 68.0 °F - 60.8 °F 78% 29.83 in 10.0 mi Calm Calm - N/A   Clear
10:37 AM 69.8 °F - 60.8 °F 73% 29.83 in 10.0 mi North 3.5 mph - N/A   Clear
10:55 AM 69.8 °F - 60.8 °F 73% 29.83 in 10.0 mi North 4.6 mph - N/A   Clear
11:15 AM 71.6 °F - 60.8 °F 69% 29.83 in 10.0 mi NW 5.8 mph - N/A   Clear
11:36 AM 71.6 °F - 62.6 °F 73% 29.83 in 10.0 mi NNW 5.8 mph - N/A   Clear
11:55 AM 73.4 °F - 62.6 °F 69% 29.84 in 10.0 mi North 5.8 mph - N/A   Clear
11:56 AM 73.4 °F - 62.6 °F 69% 29.84 in 10.0 mi North 5.8 mph - N/A   Clear
12:15 PM 73.4 °F - 62.6 °F 69% 29.84 in 10.0 mi North 3.5 mph - N/A   Scattered Clouds
12:35 PM 75.2 °F - 62.6 °F 65% 29.84 in 10.0 mi West 5.8 mph - N/A   Scattered Clouds
12:55 PM 75.2 °F - 62.6 °F 65% 29.84 in 10.0 mi NNW 6.9 mph - N/A   Clear
1:15 PM 77.0 °F - 64.4 °F 65% 29.84 in 10.0 mi WNW 4.6 mph - N/A   Scattered Clouds
1:16 PM 77.0 °F - 64.4 °F 65% 29.84 in 10.0 mi WNW 4.6 mph - N/A   Scattered Clouds
1:35 PM 77.0 °F - 64.4 °F 65% 29.83 in 10.0 mi NNW 8.1 mph - N/A   Scattered Clouds
1:55 PM 78.8 °F - 64.4 °F 61% 29.83 in 10.0 mi NW 5.8 mph - N/A   Scattered Clouds
1:56 PM 80.6 °F 82.3 °F 64.4 °F 58% 29.83 in 10.0 mi NNW 5.8 mph - N/A   Scattered Clouds
2:15 PM 78.8 °F - 64.4 °F 61% 29.83 in 10.0 mi NW 4.6 mph - N/A   Mostly Cloudy
2:16 PM 77.0 °F - 64.4 °F 65% 29.83 in 10.0 mi NNW 4.6 mph - N/A   Mostly Cloudy
2:35 PM 78.8 °F - 64.4 °F 61% 29.83 in 10.0 mi NW 4.6 mph - N/A   Mostly Cloudy
2:55 PM 78.8 °F - 62.6 °F 57% 29.83 in 10.0 mi WNW 9.2 mph - N/A   Mostly Cloudy
2:56 PM 78.8 °F - 62.6 °F 57% 29.83 in 10.0 mi NW 11.5 mph - N/A   Mostly Cloudy
3:15 PM 78.8 °F - 62.6 °F 57% 29.83 in 10.0 mi NW 5.8 mph - N/A   Scattered Clouds
3:16 PM 78.8 °F - 64.4 °F 61% 29.83 in 10.0 mi NW 6.9 mph - N/A   Scattered Clouds
3:35 PM 78.8 °F - 64.4 °F 61% 29.83 in 10.0 mi NNW 9.2 mph - N/A   Scattered Clouds
3:36 PM 78.8 °F - 64.4 °F 61% 29.83 in 10.0 mi NNW 9.2 mph - N/A   Scattered Clouds
3:56 PM 78.8 °F - 64.4 °F 61% 29.83 in 10.0 mi NNW 10.4 mph - N/A   Clear
4:15 PM 75.2 °F - 62.6 °F 65% 29.84 in 10.0 mi North 6.9 mph - N/A   Scattered Clouds
4:16 PM 75.2 °F - 62.6 °F 65% 29.84 in 10.0 mi North 6.9 mph - N/A   Scattered Clouds
4:36 PM 78.8 °F - 62.6 °F 57% 29.84 in 10.0 mi North 9.2 mph - N/A   Scattered Clouds
4:55 PM 77.0 °F - 62.6 °F 61% 29.84 in 10.0 mi NNW 8.1 mph - N/A   Scattered Clouds
4:56 PM 77.0 °F - 62.6 °F 61% 29.84 in 10.0 mi NNW 8.1 mph - N/A   Scattered Clouds
5:15 PM 78.8 °F - 62.6 °F 57% 29.84 in 10.0 mi North 8.1 mph - N/A   Scattered Clouds
5:16 PM 78.8 °F - 62.6 °F 57% 29.84 in 10.0 mi NW 6.9 mph - N/A   Scattered Clouds
5:35 PM 78.8 °F - 60.8 °F 54% 29.84 in 10.0 mi NNW 4.6 mph - N/A   Clear
5:36 PM 78.8 °F - 60.8 °F 54% 29.84 in 10.0 mi North 6.9 mph - N/A   Clear
5:55 PM 77.0 °F - 60.8 °F 57% 29.84 in 10.0 mi North 3.5 mph - N/A   Clear
5:57 PM 77.0 °F - 60.8 °F 57% 29.84 in 10.0 mi North 4.6 mph - N/A   Clear
6:15 PM 78.8 °F - 60.8 °F 54% 29.83 in 10.0 mi North 6.9 mph - N/A   Clear
6:16 PM 78.8 °F - 60.8 °F 54% 29.83 in 10.0 mi North 6.9 mph - N/A   Clear
6:35 PM 78.8 °F - 59.0 °F 51% 29.83 in 10.0 mi North 4.6 mph - N/A   Clear
6:37 PM 78.8 °F - 59.0 °F 51% 29.84 in 10.0 mi North 4.6 mph - N/A   Clear
6:55 PM 77.0 °F - 59.0 °F 54% 29.84 in 10.0 mi North 5.8 mph - N/A   Clear
6:56 PM 77.0 °F - 59.0 °F 54% 29.84 in 10.0 mi North 4.6 mph - N/A   Clear
7:15 PM 77.0 °F - 57.2 °F 50% 29.84 in 10.0 mi NNE 4.6 mph - N/A   Clear
7:17 PM 77.0 °F - 57.2 °F 50% 29.84 in 10.0 mi NNE 3.5 mph - N/A   Clear
7:35 PM 75.2 °F - 59.0 °F 57% 29.84 in 10.0 mi NNE 4.6 mph - N/A   Clear
7:36 PM 75.2 °F - 59.0 °F 57% 29.84 in 10.0 mi NNE 5.8 mph - N/A   Clear
7:55 PM 75.2 °F - 57.2 °F 53% 29.84 in 10.0 mi NE 4.6 mph - N/A   Clear
7:56 PM 75.2 °F - 57.2 °F 53% 29.84 in 10.0 mi NE 3.5 mph - N/A   Clear
8:15 PM 73.4 °F - 59.0 °F 61% 29.84 in 10.0 mi NE 3.5 mph - N/A   Clear
8:35 PM 73.4 °F - 57.2 °F 57% 29.84 in 10.0 mi NNE 3.5 mph - N/A   Clear
8:36 PM 71.6 °F - 57.2 °F 60% 29.84 in 10.0 mi NNE 3.5 mph - N/A   Clear
8:55 PM 69.8 °F - 57.2 °F 64% 29.85 in 10.0 mi Calm Calm - N/A   Clear
8:56 PM 69.8 °F - 57.2 °F 64% 29.85 in 10.0 mi Calm Calm - N/A   Clear
9:15 PM 68.0 °F - 57.2 °F 68% 29.85 in 10.0 mi Calm Calm - N/A   Clear
9:35 PM 66.2 °F - 57.2 °F 73% 29.86 in 10.0 mi Calm Calm - N/A   Clear
9:56 PM 64.4 °F - 57.2 °F 77% 29.87 in 10.0 mi Calm Calm - N/A   Clear
10:15 PM 66.2 °F - 57.2 °F 73% 29.87 in 10.0 mi NE 3.5 mph - N/A   Clear
10:16 PM 66.2 °F - 57.2 °F 73% 29.87 in 10.0 mi NE 4.6 mph - N/A   Clear
10:35 PM 66.2 °F - 57.2 °F 73% 29.88 in 10.0 mi Calm Calm - N/A   Clear
10:55 PM 64.4 °F - 57.2 °F 77% 29.89 in 10.0 mi NE 4.6 mph - N/A   Clear
10:56 PM 64.4 °F - 57.2 °F 77% 29.89 in 10.0 mi NE 4.6 mph - N/A   Clear
11:16 PM 64.4 °F - 57.2 °F 77% 29.89 in 10.0 mi NE 4.6 mph - N/A   Clear
11:35 PM 64.4 °F - 57.2 °F 77% 29.90 in 10.0 mi ENE 4.6 mph - N/A   Clear
11:36 PM 64.4 °F - 57.2 °F 77% 29.90 in 10.0 mi ENE 4.6 mph - N/A   Clear
11:55 PM 62.6 °F - 57.2 °F 82% 29.90 in 10.0 mi East 4.6 mph - N/A   Clear